WENTIAN

Last updated on Tue Jul 26 2022 00:02:04 GMT+0000 (Coordinated Universal Time)

1 53239U 22085A 22206.52710080 .00011453 00000+0 13399-3 0 9995 2 53239 41.4730 345.4557 0007237 280.5541 163.4622 15.61415122 70762

Satellite not in orbit

WENTIAN